Simultaneous Nadir Overpasses (SNOs) Predictions

Prediction of SNOs over PacNW region [( 10.00, 139.50) to ( 22.70, 165.60)] between AQUA and NPP Satellites:

Table of predicted SNOs over PacNW region for the next 30.0 days since TLE Epoch: 7/31/2021
Index Date (AQUA) Time (AQUA) AQUA Lat,Lon Date (NPP) Time (NPP) NPP Lat,Lon Distance(km) Time Diff (sec)
1 08/07/2021 15:09:49 22.64, 159.84 08/07/2021 15:11:29 23.23, 157.15 283.02 100
2 08/10/2021 03:31:40 22.67, 147.51 08/10/2021 03:28:11 24.09, 145.30 275.60 209
3 08/15/2021 15:59:15 22.64, 147.48 08/15/2021 16:02:18 23.31, 144.47 317.25 183
4 08/23/2021 15:09:46 22.63, 159.85 08/23/2021 15:11:38 23.26, 157.13 286.90 112
5 08/26/2021 03:31:36 22.68, 147.52 08/26/2021 03:28:06 23.26, 145.48 218.47 210
